Time,TemperatureF,DewpointF,PressureIn,WindDirection,WindDirectionDegrees,WindSpeedMPH,WindSpeedGustMPH,Humidity,HourlyPrecipIn,Conditions,Clouds,dailyrainin,SolarRadiationWatts/m^2,SoftwareType,DateUTC
2016-02-08 00:00:00,29.8,17.4,-100.00,NE,45,6.3,8.9,59,0.00,,,-99.99,1.0,HOBO +U30 +Weather +,2016-02-08 07:00:00,
2016-02-08 00:15:00,29.8,17.5,-100.00,NE,49,4.0,7.4,59,0.00,,,-99.99,1.0,HOBO +U30 +Weather +,2016-02-08 07:15:00,
2016-02-08 00:30:00,30.3,16.4,-100.00,NE,39,4.0,6.7,55,0.00,,,-99.99,1.0,HOBO +U30 +Weather +,2016-02-08 07:30:00,
2016-02-08 01:00:00,31.0,16.2,-100.00,NNE,28,1.1,4.0,53,0.00,,,-99.99,1.0,HOBO +U30 +Weather +,2016-02-08 08:00:00,
2016-02-08 01:15:00,32.6,17.3,-100.00,NE,46,0.0,0.7,52,0.00,,,-99.99,1.0,HOBO +U30 +Weather +,2016-02-08 08:15:00,
2016-02-08 01:30:00,31.0,16.9,-100.00,NNE,22,0.0,1.8,55,0.00,,,-99.99,1.0,HOBO +U30 +Weather +,2016-02-08 08:30:00,
2016-02-08 01:45:00,30.0,16.5,-100.00,NNW,333,0.0,2.9,56,0.00,,,-99.99,1.0,HOBO +U30 +Weather +,2016-02-08 08:45:00,
2016-02-08 02:00:00,31.1,16.9,-100.00,WNW,293,1.1,4.5,55,0.00,,,-99.99,1.0,HOBO +U30 +Weather +,2016-02-08 09:00:00,
2016-02-08 02:15:00,30.5,17.1,-100.00,WNW,291,0.0,0.0,57,0.00,,,-99.99,1.0,HOBO +U30 +Weather +,2016-02-08 09:15:00,
2016-02-08 02:30:00,29.9,16.9,-100.00,SW,230,2.2,4.5,57,0.00,,,-99.99,1.0,HOBO +U30 +Weather +,2016-02-08 09:30:00,
2016-02-08 02:45:00,29.0,17.0,-100.00,South,187,2.9,5.1,60,0.00,,,-99.99,1.0,HOBO +U30 +Weather +,2016-02-08 09:45:00,
2016-02-08 03:00:00,28.2,17.4,-100.00,SSE,161,1.8,4.5,63,0.00,,,-99.99,1.0,HOBO +U30 +Weather +,2016-02-08 10:00:00,
2016-02-08 03:15:00,27.4,16.8,-100.00,NNE,29,2.2,4.0,63,0.00,,,-99.99,1.0,HOBO +U30 +Weather +,2016-02-08 10:15:00,
2016-02-08 03:30:00,28.7,17.2,-100.00,NNE,29,0.0,2.2,61,0.00,,,-99.99,1.0,HOBO +U30 +Weather +,2016-02-08 10:30:00,
2016-02-08 03:45:00,28.9,17.2,-100.00,NNE,29,0.0,0.7,61,0.00,,,-99.99,1.0,HOBO +U30 +Weather +,2016-02-08 10:45:00,
2016-02-08 04:00:00,28.3,17.9,-100.00,NNE,29,0.0,1.8,64,0.00,,,-99.99,1.0,HOBO +U30 +Weather +,2016-02-08 11:00:00,
2016-02-08 04:15:00,28.1,18.0,-100.00,East,87,1.1,2.9,65,0.00,,,-99.99,1.0,HOBO +U30 +Weather +,2016-02-08 11:15:00,
2016-02-08 04:30:00,28.8,17.9,-100.00,ESE,111,0.0,3.4,63,0.00,,,-99.99,1.0,HOBO +U30 +Weather +,2016-02-08 11:30:00,
2016-02-08 04:45:00,28.4,18.0,-100.00,South,190,1.1,4.0,64,0.00,,,-99.99,1.0,HOBO +U30 +Weather +,2016-02-08 11:45:00,
2016-02-08 05:00:00,28.3,18.0,-100.00,SW,222,1.8,5.1,64,0.00,,,-99.99,1.0,HOBO +U30 +Weather +,2016-02-08 12:00:00,
2016-02-08 05:15:00,27.9,17.7,-100.00,SW,218,1.8,5.6,65,0.00,,,-99.99,1.0,HOBO +U30 +Weather +,2016-02-08 12:15:00,
2016-02-08 05:30:00,27.9,17.1,-100.00,SW,227,2.9,5.6,63,0.00,,,-99.99,1.0,HOBO +U30 +Weather +,2016-02-08 12:30:00,
2016-02-08 05:45:00,27.8,16.7,-100.00,SW,229,2.9,6.3,62,0.00,,,-99.99,1.0,HOBO +U30 +Weather +,2016-02-08 12:45:00,
2016-02-08 06:00:00,26.6,17.5,-100.00,SSW,208,2.9,6.3,68,0.00,,,-99.99,1.0,HOBO +U30 +Weather +,2016-02-08 13:00:00,
2016-02-08 06:15:00,26.2,17.9,-100.00,SSW,194,4.0,6.7,70,0.00,,,-99.99,1.0,HOBO +U30 +Weather +,2016-02-08 13:15:00,
2016-02-08 06:30:00,25.7,17.6,-100.00,SSW,195,5.1,7.4,71,0.00,,,-99.99,1.0,HOBO +U30 +Weather +,2016-02-08 13:30:00,
2016-02-08 06:45:00,25.9,18.0,-100.00,SSW,198,4.5,6.3,71,0.00,,,-99.99,1.0,HOBO +U30 +Weather +,2016-02-08 13:45:00,
2016-02-08 07:00:00,26.3,17.6,-100.00,SSW,204,3.4,6.3,69,0.00,,,-99.99,1.0,HOBO +U30 +Weather +,2016-02-08 14:00:00,
2016-02-08 07:15:00,27.3,17.8,-100.00,SSW,202,2.9,5.6,67,0.00,,,-99.99,1.0,HOBO +U30 +Weather +,2016-02-08 14:15:00,
2016-02-08 07:30:00,26.5,18.0,-100.00,SSW,201,1.8,5.1,69,0.00,,,-99.99,7.0,HOBO +U30 +Weather +,2016-02-08 14:30:00,
2016-02-08 08:00:00,28.6,18.6,-100.00,SSW,212,2.2,5.6,65,0.00,,,-99.99,79.0,HOBO +U30 +Weather +,2016-02-08 15:00:00,
2016-02-08 08:15:00,30.1,19.6,-100.00,SSW,209,2.2,5.1,64,0.00,,,-99.99,152.0,HOBO +U30 +Weather +,2016-02-08 15:15:00,
2016-02-08 08:30:00,30.0,18.9,-100.00,SSW,197,2.9,5.6,62,0.00,,,-99.99,182.0,HOBO +U30 +Weather +,2016-02-08 15:30:00,
2016-02-08 08:45:00,31.6,19.7,-100.00,SSW,197,4.0,6.7,61,0.00,,,-99.99,249.0,HOBO +U30 +Weather +,2016-02-08 15:45:00,
2016-02-08 09:00:00,33.3,19.8,-100.00,SSW,202,4.0,6.7,57,0.00,,,-99.99,222.0,HOBO +U30 +Weather +,2016-02-08 16:00:00,
2016-02-08 09:15:00,34.2,20.0,-100.00,SSW,209,4.0,8.9,55,0.00,,,-99.99,276.0,HOBO +U30 +Weather +,2016-02-08 16:15:00,
2016-02-08 09:30:00,35.6,20.0,-100.00,SW,226,5.6,8.9,52,0.00,,,-99.99,216.0,HOBO +U30 +Weather +,2016-02-08 16:30:00,
2016-02-08 09:45:00,37.7,20.7,-100.00,SW,227,7.4,13.4,49,0.00,,,-99.99,319.0,HOBO +U30 +Weather +,2016-02-08 16:45:00,
2016-02-08 10:00:00,38.8,20.9,-100.00,WSW,246,7.8,13.4,48,0.00,,,-99.99,357.0,HOBO +U30 +Weather +,2016-02-08 17:00:00,
2016-02-08 10:15:00,39.8,21.3,-100.00,WSW,244,10.1,15.9,47,0.00,,,-99.99,336.0,HOBO +U30 +Weather +,2016-02-08 17:15:00,